weather.gov     
National Weather Service

Terminal Aerodrome Forecast
NWS Homepage
This page is being discontinued on March 12, 2014.
The same data is available at this site. Please update your bookmarks.
Thank you, and we apologize for the inconvenience.
Please send an email to SR-SRH.Webmaster@noaa.gov with any concerns.


Current Version
Previous Version:    01  02  03  04  05  06  07  08  09  10  11  12  13  14  15  16  17  18  19  20  21  22  23  24  25  26  
[Printable]
662
FTUS42 KILM 021100
TAFILM
TAF
KILM 021140Z 0212/0312 25007KT P6SM SCT015
     FM021800 17008KT P6SM VCTS SCT035CB SCT090
     FM022100 19012KT P6SM SCT050 SCT090 BKN250
     FM030000 21006KT P6SM SCT250
     FM030800 VRB03KT P6SM SCT015=


U.S. Dept. of Commerce
NOAA National Weather Service
1325 East West Highway
Silver Spring, MD 20910
E-mail: w-nws.webmaster@noaa.gov
Page last modified: May 16, 2007
NATIONAL WEATHER SERVICE: for Safety, for Work, for Fun - FOR LIFE